Location: B?jaj?g
(11.7167°N, 92.6667°E)
Time: 22:21:59
(UTC+00:00)

Cosmos 1066 Rocket - Pass Details

Date: 18 September 2020
Orbit: 798 x 894 km, 81.2° (Epoch: 30 October)

Event Time Altitude Azimuth Distance (km) Brightness Sun altitude
Rises 12:11:40 0° 354° (N) 3,302 7.4 -6.6°
Reaches altitude 10° 12:14:02 10° 354° (N) 2,378 6.7 -7.2°
Maximum altitude 12:19:24 88° 266° (W) 818 4.2 -8.5°
Drops below altitude 10° 12:24:53 10° 176° (S) 2,428 6.5 -9.8°
Sets 12:27:19 0° 176° (S) 3,375 7.2 -10.4°
